Wind_Speed
28 26 25 25 21 24 25 21 20 20 17 17 19 22 22 20 15 13 10 8 4 8 9 6 5 11 14 11 8 8 11 13 10 8 5 4 7 11 10 8 12 11 10 7
32 31 28 27 25 27 27 21 20 21 21 20 19 21 21 20 16 14 11 6 6 9 11 7 4 12 12 3 5 5 7 7 6 7 6 7 5 4 6 11 15 13 13 10
35 33 31 31 28 31 30 25 22 23 25 24 21 22 22 20 16 13 13 2 1 9 10 7 12 11 11 11 9 5 3 2 3 4 6 9 7 3 0 2 7 11 13 7
37 36 35 34 32 35 34 28 26 26 27 28 25 22 21 22 18 15 12 7 4 8 18 18 14 12 6 8 16 14 10 8 6 5 3 1 2 2 3 6 11 13 15 16
38 39 38 37 35 38 33 29 29 31 30 29 28 25 23 22 21 20 15 12 9 10 17 23 23 19 20 15 16 18 16 15 11 9 7 6 4 3 6 5 9 9 13 15
36 38 40 39 38 38 33 32 33 32 32 30 31 30 26 26 26 24 21 17 15 13 18 21 27 29 27 23 25 26 24 19 17 14 14 11 12 8 11 16 15 13 14 11
36 37 37 38 39 34 34 35 35 34 34 33 32 33 31 29 30 28 24 21 20 19 20 21 22 28 32 33 32 28 30 29 25 23 21 21 20 18 13 14 21 19 13 15
39 37 37 36 34 35 36 37 36 35 36 36 36 35 34 33 30 29 28 23 21 22 20 25 24 24 26 30 36 35 33 32 35 33 32 28 24 22 24 18 21 23 20 16
36 38 35 35 34 36 35 37 38 37 37 37 37 38 37 36 33 31 29 28 27 25 26 22 27 26 28 32 34 37 40 42 37 37 37 38 29 31 31 27 28 25 27 24
34 30 31 33 35 35 36 37 38 36 35 36 37 39 39 38 36 36 34 33 32 30 29 28 26 26 29 33 35 41 47 45 43 40 41 43 42 42 40 39 32 35 37 36
31 31 32 33 32 33 33 33 34 33 32 33 35 38 40 39 37 37 37 36 36 36 35 35 34 33 31 37 40 42 48 50 48 49 50 49 49 50 50 53 48 40 41 39
31 30 33 33 32 31 32 32 30 31 33 34 36 39 40 38 34 34 38 38 39 40 41 41 40 40 38 35 36 40 44 44 50 52 51 53 57 59 55 57 60 57 53 52
33 32 33 34 34 32 31 32 31 31 33 33 36 37 39 39 36 34 37 39 38 38 37 37 39 42 43 43 43 42 46 49 52 54 56 58 56 59 60 60 61 63 61 55
37 36 34 35 35 35 35 33 31 33 32 33 36 38 38 39 39 38 39 42 43 42 39 35 33 37 39 45 45 45 43 45 50 53 54 54 57 59 61 64 66 64 65 68
40 39 37 37 39 37 35 35 34 34 35 36 35 37 38 40 41 41 40 41 41 41 39 32 34 36 39 43 43 46 44 45 47 49 52 54 56 57 59 61 61 63 68 71
40 39 39 38 36 38 39 38 37 37 37 38 38 39 39 40 39 38 38 36 36 36 34 31 37 40 42 42 44 44 42 42 44 46 46 48 50 53 56 55 59 63 67 68
39 40 40 37 35 38 37 36 37 38 39 38 37 38 38 39 40 34 35 37 36 35 36 41 43 41 41 43 44 44 44 45 47 47 46 48 49 53 58 63 62 62 66 66
40 40 38 37 37 38 35 35 37 38 37 35 36 37 37 37 36 39 37 34 37 40 41 41 42 41 43 44 45 46 47 49 51 51 50 50 51 54 57 61 65 68 62 63
40 39 37 37 40 39 38 36 37 37 36 33 34 35 38 38 37 41 43 39 37 38 39 40 43 44 44 45 47 48 49 50 51 50 51 52 54 57 59 62 66 62 64 66
39 37 38 40 40 39 39 35 35 36 33 33 34 37 37 37 38 39 38 38 35 34 35 38 41 42 44 45 45 46 48 49 51 52 55 57 59 60 61 62 59 62 65 67
39 37 38 39 38 36 36 34 32 32 30 32 36 34 34 33 35 35 34 35 35 33 33 33 34 38 40 42 44 46 48 52 54 57 60 59 58 60 60 57 62 66 68 66
38 36 33 30 31 32 34 31 32 31 31 34 34 33 31 31 33 34 34 35 36 35 34 34 34 36 39 43 47 51 55 57 58 57 56 58 60 55 56 62 68 69 67 67
36 33 30 33 33 33 33 32 31 31 33 35 36 33 31 29 32 34 33 36 37 36 36 38 40 44 47 50 53 55 56 54 53 54 58 53 53 57 61 65 66 65 65 63
35 34 33 34 34 34 33 31 31 32 35 38 38 37 32 30 33 35 33 34 35 36 37 40 43 46 48 49 50 51 52 54 55 51 49 54 59 62 63 61 60 61 59 58
34 35 35 33 34 33 33 33 34 35 36 37 36 34 32 33 33 36 35 34 34 36 39 42 46 47 47 48 51 53 53 48 46 51 56 60 62 62 58 56 57 54 52 50
38 35 34 33 28 24 23 24 27 32 35 38 36 34 32 31 32 35 37 37 37 40 44 47 47 48 50 52 50 44 44 48 53 58 61 63 61 57 54 57 55 52 51 49
Wind_Direction
248 250 254 257 262 271 276 280 281 285 288 289 291 295 300 305 311 325 336 6 39 167 189 138 53 356 348 341 51 67 82 82 90 108 114 146 198 218 226 209 246 272 283 243
245 248 249 255 260 265 270 279 287 287 287 287 289 289 291 295 304 312 313 15 9 166 186 186 341 297 335 299 322 39 58 53 97 74 80 118 142 172 212 235 227 255 276 281
244 248 250 255 259 262 264 269 280 290 289 283 283 286 289 288 289 290 295 346 51 189 193 216 276 281 271 243 228 213 209 109 2 1 59 22 359 358 11 286 243 250 263 261
245 246 248 252 257 260 263 269 275 279 283 288 284 284 286 289 286 278 270 261 223 205 201 215 261 268 228 245 236 233 242 248 257 290 250 287 109 292 288 316 323 316 277 271
242 244 246 251 253 256 262 267 273 278 275 281 283 284 283 285 285 282 276 260 236 231 219 231 230 247 253 243 243 244 240 252 248 226 228 239 238 268 269 296 296 301 295 296
247 247 247 249 250 255 262 263 270 271 270 269 276 276 279 284 286 287 287 279 266 247 243 238 247 246 247 251 251 241 234 234 242 251 249 257 250 249 261 264 270 304 285 282
245 247 250 250 254 262 264 266 265 265 264 265 265 272 274 276 283 287 289 288 280 272 271 257 252 254 252 255 261 251 238 237 241 239 241 247 262 258 259 263 265 270 282 286
247 248 249 253 258 263 263 263 264 264 261 260 264 268 271 273 276 281 285 283 284 281 273 277 270 268 263 259 256 260 258 250 248 254 255 238 249 244 271 268 269 262 258 266
247 249 253 255 256 256 258 258 262 261 259 261 265 269 269 269 268 269 272 279 282 285 284 277 280 277 259 260 258 258 262 264 253 254 259 262 256 248 252 263 258 249 255 256
245 249 250 251 252 255 258 261 259 254 254 258 263 269 270 270 272 268 266 270 274 273 276 276 269 272 262 264 261 262 261 262 258 258 260 263 263 261 257 260 251 246 249 256
248 248 247 250 253 257 257 255 254 256 260 262 267 269 273 275 275 270 269 268 269 271 270 272 273 270 271 263 266 271 262 261 264 263 261 263 266 267 265 263 266 261 259 256
243 247 247 250 252 253 252 253 255 254 259 264 269 270 276 278 278 275 272 271 271 272 273 272 272 275 275 275 273 272 269 267 261 264 266 266 267 268 270 269 269 268 268 269
239 240 242 244 248 250 253 253 256 261 261 264 268 274 277 280 280 279 278 278 275 272 270 270 271 273 275 273 274 270 265 265 269 268 268 270 269 269 273 275 274 273 272 273
238 241 242 243 246 247 250 256 257 259 264 267 270 276 277 280 281 280 278 279 279 280 280 276 274 269 271 272 274 273 269 268 269 269 271 271 271 272 274 275 277 277 271 281
239 240 245 246 247 251 254 255 259 265 266 269 272 277 280 280 281 281 280 279 280 280 281 276 268 262 263 271 271 273 273 273 277 278 277 276 275 274 277 281 283 283 283 284
239 242 246 251 256 255 255 260 264 265 268 271 274 277 280 282 282 282 282 279 278 276 280 271 264 271 273 271 271 269 271 277 281 280 281 283 285 288 287 284 285 285 285 285
243 243 245 251 256 255 259 263 266 268 270 275 280 281 285 287 287 282 279 275 270 269 263 267 273 273 275 275 278 276 277 283 286 286 285 287 286 284 286 288 288 288 292 292
247 247 249 251 254 258 261 263 264 268 274 280 281 282 281 281 281 284 283 283 273 269 268 268 270 271 273 275 276 275 275 277 281 285 282 281 283 287 289 292 293 294 291 291
245 248 250 252 253 257 261 262 267 271 275 278 278 278 279 279 280 281 284 284 280 276 272 270 270 270 271 273 274 277 277 278 281 282 282 285 286 289 289 289 290 289 291 293
247 249 251 252 256 260 265 267 271 273 274 274 277 279 281 279 278 279 277 283 285 283 281 277 272 268 268 271 274 276 277 277 277 280 282 286 287 287 286 289 288 290 291 293
247 250 254 259 263 266 269 269 268 270 274 277 279 281 282 282 282 281 281 286 289 286 283 281 276 272 271 273 275 276 278 281 283 287 288 287 287 287 288 286 290 292 292 291
247 253 257 261 265 266 266 268 271 273 276 279 285 290 286 285 280 281 286 291 291 289 285 282 280 278 279 281 283 284 285 286 286 286 286 287 290 290 290 291 293 293 292 289
246 251 258 262 263 266 269 272 275 278 281 284 291 294 292 290 287 286 291 292 292 291 289 287 287 286 285 285 285 284 285 287 287 288 290 290 290 292 291 294 295 293 291 288
249 252 261 263 267 270 273 276 277 279 284 292 293 293 297 296 288 288 293 291 288 287 285 284 283 283 283 285 287 288 289 290 291 290 290 293 295 296 297 298 299 301 298 295
253 257 262 268 273 276 276 272 275 279 284 289 290 292 294 290 283 286 292 291 286 284 284 286 289 291 292 292 292 292 292 291 292 293 294 297 299 300 300 302 305 306 304 303
249 260 265 272 273 274 275 277 280 282 286 294 294 292 292 284 279 283 290 290 288 289 293 295 295 294 294 295 295 294 295 295 296 298 299 300 300 299 301 307 310 311 310 308
Height
10970 10972 10973 10975 10976 10973 10973 10974 10975 10974 10972 10971 10970 10968 10967 10967 10966 10965 10966 10966 10963 10965 10964 10966 10965 10963 10962 10960 10959 10959 10959 10958 10957 10956 10956 10957 10958 10958 10959 10959 10960 10960 10960 10958
10964 10966 10968 10969 10971 10970 10970 10970 10970 10969 10968 10968 10967 10965 10964 10964 10963 10961 10962 10964 10963 10962 10964 10963 10959 10961 10963 10961 10960 10958 10959 10959 10958 10959 10958 10957 10957 10956 10956 10957 10957 10958 10958 10958
10958 10961 10963 10964 10966 10964 10965 10967 10967 10965 10962 10962 10964 10962 10961 10960 10960 10959 10958 10962 10960 10960 10959 10960 10957 10957 10959 10960 10960 10957 10957 10957 10957 10958 10956 10957 10957 10957 10957 10956 10956 10955 10954 10955
10950 10955 10957 10957 10960 10958 10959 10962 10963 10962 10959 10955 10957 10958 10957 10955 10956 10956 10956 10958 10957 10957 10956 10957 10956 10956 10956 10957 10958 10957 10955 10956 10956 10956 10955 10954 10955 10955 10955 10955 10954 10952 10952 10951
10942 10945 10948 10950 10953 10951 10955 10957 10957 10956 10954 10950 10950 10951 10950 10949 10949 10949 10952 10953 10954 10953 10952 10951 10951 10951 10950 10951 10954 10954 10953 10953 10953 10953 10952 10951 10951 10951 10951 10953 10952 10951 10950 10949
10935 10937 10940 10943 10944 10945 10949 10951 10951 10950 10947 10948 10944 10944 10945 10943 10943 10944 10946 10947 10948 10948 10947 10947 10946 10945 10948 10948 10948 10948 10948 10948 10947 10948 10949 10949 10948 10947 10947 10947 10947 10949 10948 10946
10926 10929 10933 10936 10938 10942 10943 10943 10943 10942 10941 10940 10939 10937 10939 10940 10938 10938 10940 10941 10941 10942 10941 10940 10941 10941 10941 10942 10943 10942 10940 10941 10942 10943 10943 10942 10943 10943 10943 10941 10941 10941 10941 10941
10919 10923 10925 10929 10933 10934 10934 10933 10934 10935 10933 10932 10932 10932 10933 10934 10934 10933 10933 10934 10935 10935 10936 10934 10934 10934 10933 10933 10935 10935 10936 10935 10936 10936 10936 10934 10935 10936 10936 10935 10934 10934 10932 10934
10911 10914 10920 10922 10923 10924 10926 10924 10925 10925 10926 10925 10925 10924 10926 10926 10929 10928 10927 10926 10926 10927 10927 10927 10927 10926 10925 10924 10925 10926 10927 10927 10928 10927 10927 10927 10927 10928 10927 10927 10926 10925 10926 10925
10904 10909 10912 10912 10914 10916 10916 10917 10916 10917 10919 10919 10918 10915 10916 10918 10922 10921 10921 10921 10920 10919 10918 10919 10919 10918 10918 10917 10917 10917 10918 10919 10920 10919 10918 10917 10917 10917 10916 10915 10916 10916 10916 10916
10899 10902 10904 10904 10906 10907 10909 10909 10909 10911 10912 10913 10911 10908 10906 10909 10913 10913 10912 10913 10911 10910 10909 10909 10909 10909 10909 10908 10907 10906 10906 10907 10909 10909 10909 10909 10908 10906 10907 10906 10905 10906 10906 10905
10892 10895 10896 10897 10898 10899 10900 10902 10904 10906 10906 10906 10903 10899 10898 10900 10903 10904 10901 10902 10902 10901 10900 10899 10899 10899 10899 10897 10896 10895 10896 10895 10897 10896 10898 10899 10897 10896 10895 10894 10893 10893 10894 10893
10885 10887 10887 10888 10890 10891 10893 10894 10897 10899 10899 10899 10895 10894 10891 10890 10894 10894 10891 10889 10889 10889 10890 10891 10891 10889 10888 10886 10885 10885 10885 10884 10884 10885 10885 10883 10883 10882 10880 10878 10878 10878 10877 10878
10876 10877 10880 10881 10883 10884 10885 10887 10889 10889 10890 10891 10889 10886 10885 10882 10882 10883 10881 10878 10877 10877 10878 10881 10882 10878 10877 10873 10874 10874 10873 10872 10871 10871 10871 10869 10868 10867 10866 10865 10863 10862 10861 10861
10865 10870 10871 10874 10874 10877 10879 10879 10881 10882 10882 10881 10882 10879 10877 10874 10871 10871 10871 10869 10867 10867 10866 10870 10867 10866 10865 10866 10864 10862 10861 10860 10858 10855 10853 10852 10851 10851 10850 10848 10846 10844 10843 10841
10856 10861 10863 10865 10868 10870 10870 10872 10874 10873 10873 10873 10873 10871 10868 10865 10862 10860 10859 10858 10856 10855 10857 10857 10855 10855 10855 10855 10852 10850 10849 10848 10845 10843 10840 10837 10834 10831 10830 10831 10828 10825 10822 10820
10849 10852 10855 10859 10862 10862 10864 10866 10866 10865 10864 10864 10863 10859 10858 10855 10851 10851 10849 10847 10846 10845 10846 10845 10845 10844 10843 10842 10839 10837 10835 10833 10831 10830 10828 10826 10823 10819 10814 10809 10809 10807 10803 10799
10841 10844 10849 10852 10853 10854 10857 10859 10858 10856 10856 10856 10852 10851 10848 10845 10843 10840 10839 10838 10837 10835 10835 10835 10835 10834 10833 10831 10829 10826 10825 10822 10820 10818 10816 10814 10811 10806 10801 10795 10788 10784 10784 10780
10834 10837 10841 10844 10844 10848 10849 10850 10849 10848 10847 10846 10844 10841 10839 10837 10835 10831 10828 10827 10826 10824 10823 10823 10822 10821 10820 10818 10816 10814 10812 10809 10807 10804 10801 10800 10797 10791 10787 10781 10775 10768 10763 10758
10827 10831 10834 10835 10837 10839 10840 10842 10841 10839 10839 10836 10834 10831 10829 10827 10825 10822 10820 10817 10815 10813 10811 10810 10809 10808 10807 10806 10804 10802 10799 10797 10794 10793 10790 10786 10782 10777 10770 10764 10759 10754 10749 10742
10821 10824 10827 10828 10830 10832 10832 10834 10833 10831 10830 10827 10824 10822 10820 10817 10814 10813 10810 10808 10805 10803 10801 10799 10799 10797 10795 10793 10792 10789 10786 10783 10780 10777 10772 10767 10763 10759 10754 10748 10742 10736 10729 10723
10812 10817 10819 10821 10822 10823 10822 10824 10823 10823 10821 10818 10816 10814 10812 10808 10805 10803 10801 10798 10796 10794 10791 10790 10789 10787 10785 10783 10780 10775 10771 10768 10765 10761 10756 10751 10746 10740 10734 10729 10723 10717 10710 10703
10806 10810 10812 10812 10813 10814 10814 10815 10814 10813 10811 10809 10807 10805 10802 10799 10797 10794 10792 10789 10786 10783 10781 10779 10777 10775 10773 10770 10765 10760 10757 10753 10749 10744 10738 10732 10728 10725 10719 10713 10704 10695 10689 10681
10800 10802 10804 10803 10804 10805 10805 10805 10804 10803 10800 10799 10797 10795 10793 10791 10789 10786 10784 10781 10778 10775 10772 10770 10768 10766 10762 10758 10752 10746 10741 10736 10731 10726 10721 10717 10711 10705 10699 10691 10683 10673 10663 10655
10793 10794 10794 10796 10797 10797 10797 10796 10795 10793 10792 10791 10788 10786 10784 10782 10780 10778 10776 10773 10770 10767 10763 10760 10756 10752 10747 10742 10736 10730 10724 10718 10715 10710 10705 10698 10691 10684 10677 10671 10662 10653 10646 10636
10784 10787 10788 10789 10789 10788 10788 10786 10786 10785 10784 10781 10779 10778 10776 10774 10771 10769 10766 10762 10759 10755 10751 10746 10741 10736 10731 10725 10719 10713 10708 10704 10699 10692 10685 10678 10671 10664 10658 10651 10644 10637 10629 10621